Location: Bouchavesnes-Bergen
(49.9859°N, 2.9203°E)
Time: 05:15:26
(UTC+00:00)

CZ-2C R/B - Pass Details

Date: 09 March 2021
Orbit: 667 x 785 km, 98.2° (Epoch: 11 April)

Event Time Altitude Azimuth Distance (km) Brightness Sun altitude
Rises 02:54:19 0° 22° (NNE) 3,119 6.5 -31.4°
Reaches altitude 10° 02:56:55 10° 34° (NE) 2,175 5.6 -31.1°
Maximum altitude 03:01:00 28° 94° (E) 1,280 4.0 -30.6°
Enters shadow 03:02:04 26° 117° (ESE) 1,352 4.0 -30.4°
